.
WxDataArchive / Data Records for 2015-10-30
2015-10-29 October 2015 2015-10-31

Data Records for Friday, 30 October 2015

Time	Temp	Chill	HIndex	Humid	Dewpt	 Wind 	HiWind	WindDir	Rain 	Barom
-----	----	-----	------	-----	-----	------	------	-------	-----	-----
00:00	42.5	42.5	42.5	86	38.6	0	2	248	0.00	29.928 
00:05	42.5	42.5	42.5	86	38.6	0	2	248	0.00	29.928 
00:10	42.5	42.5	42.5	87	38.9	0	1	248	0.00	29.928 
00:15	42.5	42.5	42.5	87	38.9	0	1	248	0.00	29.937 
00:20	42.5	42.5	42.5	87	38.9	0	0	---	0.00	29.937 
00:25	42.5	42.5	42.5	87	38.9	0	1	248	0.00	29.937 
00:30	42.5	42.5	42.5	87	38.9	0	1	248	0.00	29.940 
00:35	42.5	42.5	42.5	87	38.9	0	2	248	0.00	29.940 
00:40	42.5	42.5	42.5	87	38.9	0	1	248	0.00	29.940 
00:45	42.5	42.5	42.5	88	39.2	0	2	248	0.00	29.942 
00:50	42.5	42.5	42.5	88	39.2	0	1	248	0.00	29.942 
00:55	42.5	42.5	42.5	88	39.2	0	3	248	0.00	29.942 
01:00	42.5	42.5	42.5	88	39.2	0	1	248	0.00	29.944 
01:05	42.5	42.5	42.5	88	39.2	0	1	248	0.00	29.944 
01:10	42.5	42.5	42.5	88	39.2	0	1	248	0.00	29.944 
01:15	42.5	42.5	42.5	89	39.5	0	1	248	0.00	29.947 
01:20	42.5	42.5	42.5	89	39.5	0	1	248	0.00	29.947 
01:25	42.5	42.5	42.5	89	39.5	0	1	248	0.00	29.947 
01:30	42.5	42.5	42.5	89	39.5	0	1	248	0.00	29.947 
01:35	42.5	42.5	42.5	89	39.5	0	1	248	0.00	29.947 
01:40	42.5	42.5	42.5	89	39.5	0	1	248	0.00	29.947 
01:45	42.5	42.5	42.5	90	39.8	0	1	248	0.00	29.948 
01:50	42.6	42.6	42.6	90	39.9	0	1	248	0.00	29.948 
01:55	42.6	42.6	42.6	90	39.9	0	3	248	0.00	29.948 
02:00	42.6	42.6	42.6	90	39.9	0	1	248	0.00	29.955 
02:05	42.6	42.6	42.6	90	39.9	0	1	248	0.00	29.955 
02:10	42.6	42.6	42.6	90	39.9	0	2	248	0.00	29.955 
02:15	42.6	42.6	42.6	90	39.9	0	1	248	0.00	29.957 
02:20	42.6	42.6	42.6	90	39.9	0	0	---	0.00	29.957 
02:25	42.6	42.6	42.6	90	39.9	0	1	248	0.00	29.957 
02:30	42.6	42.6	42.6	90	39.9	0	1	248	0.00	29.958 
02:35	42.8	42.8	42.8	90	40.1	0	1	248	0.00	29.958 
02:40	42.8	42.8	42.8	90	40.1	0	1	248	0.00	29.958 
02:45	42.8	42.8	42.8	90	40.1	0	1	248	0.00	29.965 
02:50	42.8	42.8	42.8	90	40.1	0	1	248	0.00	29.965 
02:55	42.8	42.8	42.8	90	40.1	0	1	248	0.00	29.965 
03:00	42.8	42.8	42.8	91	40.4	0	1	248	0.00	29.972 
03:05	42.8	42.8	42.8	91	40.4	0	1	248	0.00	29.972 
03:10	42.8	42.8	42.8	91	40.4	0	1	248	0.00	29.972 
03:15	42.8	42.8	42.8	91	40.4	0	1	248	0.00	29.973 
03:20	42.9	42.9	42.9	91	40.5	0	1	248	0.00	29.973 
03:25	42.9	42.9	42.9	91	40.5	0	0	---	0.00	29.973 
03:30	42.9	42.9	42.9	91	40.5	0	1	248	0.00	29.975 
03:35	42.9	42.9	42.9	91	40.5	0	1	248	0.00	29.975 
03:40	42.9	42.9	42.9	91	40.5	0	1	248	0.00	29.975 
03:45	42.9	42.9	42.9	91	40.5	0	2	248	0.00	29.985 
03:50	42.9	42.9	42.9	91	40.5	0	1	248	0.00	29.985 
03:55	42.9	42.9	42.9	91	40.5	0	1	248	0.00	29.985 
04:00	42.9	42.9	42.9	91	40.5	0	1	248	0.00	29.986 
04:05	42.9	42.9	42.9	91	40.5	0	3	248	0.00	29.986 
04:10	42.9	42.9	42.9	91	40.5	0	1	248	0.00	29.986 
04:15	42.9	42.9	42.9	91	40.5	0	2	248	0.00	29.989 
04:20	43.1	43.1	43.1	91	40.7	0	1	248	0.00	29.989 
04:25	43.1	43.1	43.1	91	40.7	0	1	248	0.00	29.989 
04:30	43.1	43.1	43.1	91	40.7	0	1	248	0.00	29.995 
04:35	43.1	43.1	43.1	91	40.7	0	1	248	0.00	29.995 
04:40	43.1	43.1	43.1	91	40.7	0	1	248	0.00	29.995 
04:45	43.1	43.1	43.1	91	40.7	0	1	248	0.00	29.996 
04:50	43.1	43.1	43.1	91	40.7	0	1	248	0.00	29.996 
04:55	43.1	43.1	43.1	91	40.7	0	1	248	0.00	29.996 
05:00	43.1	43.1	43.1	91	40.7	0	1	248	0.00	29.996 
05:05	43.1	43.1	43.1	91	40.7	0	1	248	0.00	29.996 
05:10	43.1	43.1	43.1	91	40.7	0	1	248	0.00	29.996 
05:15	43.1	43.1	43.1	91	40.7	0	1	248	0.00	30.001 
05:20	43.1	43.1	43.1	91	40.7	0	1	248	0.00	30.001 
05:25	43.1	43.1	43.1	91	40.7	0	1	248	0.00	30.001 
05:30	43.1	43.1	43.1	91	40.7	0	1	248	0.00	30.011 
05:35	43.1	43.1	43.1	91	40.7	0	1	248	0.00	30.011 
05:40	43.1	43.1	43.1	91	40.7	0	1	248	0.00	30.011 
05:45	43.1	43.1	43.1	91	40.7	0	0	---	0.00	30.017 
05:50	43.2	43.2	43.2	91	40.8	0	1	248	0.00	30.017 
05:55	43.2	43.2	43.2	91	40.8	0	1	248	0.00	30.017 
06:00	43.2	43.2	43.2	91	40.8	0	1	248	0.00	30.031 
06:05	43.2	43.2	43.2	91	40.8	0	1	248	0.00	30.031 
06:10	43.2	43.2	43.2	91	40.8	0	0	---	0.00	30.031 
06:15	43.3	43.3	43.3	91	40.9	0	0	---	0.00	30.037 
06:20	43.3	43.3	43.3	91	40.9	0	1	248	0.00	30.037 
06:25	43.3	43.3	43.3	91	40.9	0	1	248	0.00	30.037 
06:30	43.3	43.3	43.3	91	40.9	0	1	248	0.00	30.044 
06:35	43.3	43.3	43.3	92	41.1	0	1	248	0.00	30.044 
06:40	43.3	43.3	43.3	91	40.9	0	1	248	0.00	30.044 
06:45	43.3	43.3	43.3	91	40.9	0	1	248	0.00	30.049 
06:50	43.3	43.3	43.3	91	40.9	0	1	248	0.00	30.049 
06:55	43.3	43.3	43.3	91	40.9	0	1	248	0.00	30.049 
07:00	43.5	43.5	43.5	91	41.0	0	1	248	0.00	30.056 
07:05	43.5	43.5	43.5	91	41.0	0	1	248	0.00	30.056 
07:10	43.5	43.5	43.5	91	41.0	0	1	248	0.00	30.056 
07:15	43.5	43.5	43.5	91	41.0	0	1	248	0.00	30.064 
07:20	43.5	43.5	43.5	91	41.0	0	1	248	0.00	30.064 
07:25	43.5	43.5	43.5	91	41.0	0	1	248	0.00	30.064 
07:30	43.5	43.5	43.5	91	41.0	0	1	248	0.00	30.065 
07:35	43.5	43.5	43.5	91	41.0	0	1	248	0.00	30.065 
07:40	43.5	43.5	43.5	91	41.0	0	1	248	0.00	30.065 
07:45	43.5	43.5	43.5	91	41.0	0	1	248	0.00	30.066 
07:50	43.5	43.5	43.5	91	41.0	0	1	248	0.00	30.066 
07:55	43.5	43.5	43.5	91	41.0	0	1	248	0.00	30.066 
08:00	43.5	43.5	43.5	91	41.0	0	1	248	0.00	30.074 
08:05	43.5	43.5	43.5	91	41.0	0	1	248	0.00	30.074 
08:10	43.6	43.6	43.6	91	41.1	0	1	248	0.00	30.074 
08:15	43.5	43.5	43.5	91	41.0	0	1	248	0.00	30.081 
08:20	43.5	43.5	43.5	91	41.0	0	1	248	0.00	30.081 
08:25	43.5	43.5	43.5	91	41.0	0	0	---	0.00	30.081 
08:30	43.5	43.5	43.5	91	41.0	0	0	---	0.00	30.084 
08:35	43.5	43.5	43.5	91	41.0	0	1	248	0.00	30.084 
08:40	43.6	43.6	43.6	92	41.4	0	1	248	0.00	30.084 
08:45	43.6	43.6	43.6	91	41.1	0	1	248	0.00	30.096 
08:50	43.8	43.8	43.8	92	41.6	0	1	248	0.00	30.096 
08:55	43.8	43.8	43.8	91	41.3	0	1	248	0.00	30.096 
09:00	43.9	43.9	43.9	91	41.4	0	1	248	0.00	30.103 
09:05	43.9	43.9	43.9	91	41.4	0	1	248	0.00	30.103 
09:10	44.1	44.1	44.1	91	41.6	0	1	248	0.00	30.103 
09:15	44.1	44.1	44.1	91	41.6	0	1	248	0.00	30.111 
09:20	44.1	44.1	44.1	91	41.6	0	1	248	0.00	30.111 
09:25	44.1	44.1	44.1	91	41.6	0	1	248	0.00	30.111 
09:30	44.1	44.1	44.1	91	41.6	0	1	248	0.00	30.114 
09:35	44.2	44.2	44.2	90	41.5	0	3	248	0.00	30.114 
09:40	44.5	44.5	44.5	90	41.8	0	1	248	0.00	30.114 
09:45	44.6	44.6	44.6	88	41.3	0	2	248	0.00	30.116 
09:50	44.6	44.6	44.6	88	41.3	0	2	248	0.00	30.116 
09:55	45.1	45.1	45.1	87	41.5	0	2	248	0.00	30.116 
10:00	45.5	45.5	45.5	86	41.6	0	2	248	0.00	30.119 
10:05	45.7	45.7	45.7	84	41.1	1	3	248	0.00	30.119 
10:10	45.7	45.7	45.7	83	40.8	1	2	248	0.00	30.119 
10:15	45.5	45.5	45.5	83	40.6	0	3	248	0.00	30.130 
10:20	45.5	45.5	45.5	83	40.6	0	2	248	0.00	30.130 
10:25	45.8	45.8	45.8	84	41.2	0	1	248	0.00	30.130 
10:30	46.5	46.5	46.5	83	41.6	0	2	248	0.00	30.135 
10:35	47.0	47.0	47.0	81	41.5	1	3	248	0.00	30.135 
10:40	46.8	46.8	46.8	80	41.0	0	2	248	0.00	30.135 
10:45	46.4	46.4	46.4	80	40.6	0	2	248	0.00	30.136 
10:50	46.4	46.4	46.4	81	40.9	0	1	248	0.00	30.136 
10:55	46.8	46.8	46.8	80	41.0	0	1	248	0.00	30.136 
11:00	47.0	47.0	47.0	79	40.8	0	2	248	0.00	30.125 
11:05	47.1	47.1	47.1	79	40.9	0	2	248	0.00	30.125 
11:10	47.7	47.7	47.7	79	41.5	0	1	248	0.00	30.125 
11:15	48.3	48.3	48.3	77	41.4	0	2	248	0.00	30.123 
11:20	49.1	49.1	49.1	77	42.2	0	2	248	0.00	30.123 
11:25	49.2	49.2	49.2	73	40.9	0	3	248	0.00	30.123 
11:30	49.6	49.6	49.6	72	40.9	0	3	248	0.00	30.123 
11:35	49.8	49.8	49.8	72	41.1	0	2	248	0.00	30.123 
11:40	50.4	50.4	50.4	72	41.7	0	1	248	0.00	30.123 
11:45	50.7	50.7	50.7	69	40.9	0	2	248	0.00	30.121 
11:50	50.7	50.7	50.7	69	40.9	0	1	248	0.00	30.121 
11:55	50.8	50.8	50.8	65	39.5	1	3	248	0.00	30.121 
12:00	50.7	50.7	50.7	65	39.4	0	2	248	0.00	30.123 
12:05	51.1	51.1	51.1	65	39.7	0	2	248	0.00	30.123 
12:10	51.4	51.4	51.4	65	40.0	0	2	248	0.00	30.123 
12:15	51.7	51.7	51.7	63	39.5	0	3	248	0.00	30.123 
12:20	51.9	51.9	51.9	59	38.0	1	4	158	0.00	30.123 
12:25	51.9	51.9	51.9	59	38.0	0	3	158	0.00	30.123 
12:30	52.0	52.0	52.0	61	39.0	0	2	158	0.00	30.133 
12:35	52.2	52.2	52.2	61	39.2	0	1	158	0.00	30.133 
12:40	52.2	52.2	52.2	61	39.2	0	4	135	0.00	30.133 
12:45	52.3	52.3	52.3	59	38.4	1	4	90	0.00	30.139 
12:50	52.5	52.5	52.5	59	38.6	0	1	90	0.00	30.139 
12:55	52.8	52.8	52.8	58	38.4	1	5	90	0.00	30.139 
13:00	52.9	52.9	52.9	56	37.6	0	3	90	0.00	30.133 
13:05	53.3	53.3	53.3	56	38.0	0	2	90	0.00	30.133 
13:10	53.5	53.5	53.5	57	38.6	1	4	90	0.00	30.133 
13:15	53.8	53.8	53.8	57	38.9	1	5	90	0.00	30.124 
13:20	53.8	53.8	53.8	54	37.5	1	4	90	0.00	30.124 
13:25	53.5	53.5	53.5	55	37.7	2	4	90	0.00	30.124 
13:30	53.6	53.6	53.6	56	38.3	1	5	90	0.00	30.121 
13:35	53.8	53.8	53.8	55	38.0	1	4	90	0.00	30.121 
13:40	53.3	53.3	53.3	54	37.1	1	4	90	0.00	30.121 
13:45	52.9	52.9	52.9	55	37.2	0	3	90	0.00	30.133 
13:50	52.6	52.6	52.6	56	37.4	1	3	90	0.00	30.133 
13:55	52.5	52.5	52.5	56	37.3	0	1	90	0.00	30.133 
14:00	52.5	52.5	52.5	56	37.3	0	1	90	0.00	30.121 
14:05	52.6	52.6	52.6	55	36.9	0	2	90	0.00	30.121 
14:10	52.8	52.8	52.8	56	37.5	0	1	90	0.00	30.121 
14:15	52.8	52.8	52.8	56	37.5	0	1	90	0.00	30.124 
14:20	52.8	52.8	52.8	54	36.6	0	1	90	0.00	30.124 
14:25	52.6	52.6	52.6	55	36.9	0	1	90	0.00	30.124 
14:30	52.6	52.6	52.6	54	36.4	0	1	90	0.00	30.120 
14:35	52.5	52.5	52.5	55	36.8	0	1	90	0.00	30.120 
14:40	52.5	52.5	52.5	55	36.8	0	1	90	0.00	30.120 
14:45	52.5	52.5	52.5	54	36.3	0	2	90	0.00	30.114 
14:50	52.5	52.5	52.5	56	37.3	0	0	---	0.00	30.114 
14:55	52.5	52.5	52.5	56	37.3	0	0	---	0.00	30.114 
15:00	52.3	52.3	52.3	58	38.0	0	1	90	0.00	30.117 
15:05	52.3	52.3	52.3	59	38.4	0	1	90	0.00	30.117 
15:10	52.2	52.2	52.2	59	38.3	1	3	90	0.00	30.117 
15:15	52.2	52.2	52.2	59	38.3	0	1	90	0.00	30.097 
15:20	52.2	52.2	52.2	59	38.3	0	2	90	0.00	30.097 
15:25	52.3	52.3	52.3	58	38.0	1	3	90	0.00	30.097 
15:30	52.2	52.2	52.2	58	37.9	1	3	90	0.00	30.100 
15:35	52.0	52.0	52.0	59	38.1	0	2	90	0.00	30.100 
15:40	52.0	52.0	52.0	59	38.1	0	1	90	0.00	30.100 
15:45	52.2	52.2	52.2	60	38.7	0	1	90	0.00	30.095 
15:50	52.2	52.2	52.2	58	37.9	0	2	90	0.00	30.095 
15:55	52.2	52.2	52.2	59	38.3	0	2	90	0.00	30.095 
16:00	52.0	52.0	52.0	59	38.1	1	3	90	0.00	30.100 
16:05	51.9	51.9	51.9	60	38.5	0	2	90	0.00	30.100 
16:10	51.9	51.9	51.9	60	38.5	0	3	90	0.00	30.100 
16:15	52.0	52.0	52.0	59	38.1	0	1	90	0.00	30.108 
16:20	52.0	52.0	52.0	59	38.1	0	2	90	0.00	30.108 
16:25	51.9	51.9	51.9	59	38.0	1	3	90	0.00	30.108 
16:30	51.7	51.7	51.7	59	37.8	0	2	90	0.00	30.120 
16:35	51.6	51.6	51.6	59	37.7	0	1	90	0.00	30.120 
16:40	51.6	51.6	51.6	60	38.2	0	1	90	0.00	30.120 
16:45	51.4	51.4	51.4	60	38.0	0	2	90	0.00	30.120 
16:50	51.4	51.4	51.4	60	38.0	0	1	90	0.00	30.120 
16:55	51.4	51.4	51.4	60	38.0	0	1	90	0.00	30.120 
17:00	51.4	51.4	51.4	61	38.4	0	0	---	0.00	30.125 
17:05	51.4	51.4	51.4	60	38.0	0	0	---	0.00	30.125 
17:10	51.3	51.3	51.3	60	37.9	0	1	90	0.00	30.125 
17:15	51.3	51.3	51.3	59	37.5	0	1	90	0.00	30.120 
17:20	51.1	51.1	51.1	60	37.7	0	2	90	0.00	30.120 
17:25	51.1	51.1	51.1	60	37.7	0	1	90	0.00	30.120 
17:30	51.1	51.1	51.1	60	37.7	0	0	---	0.00	30.108 
17:35	51.0	51.0	51.0	60	37.6	0	3	90	0.00	30.108 
17:40	51.0	51.0	51.0	61	38.0	0	1	90	0.00	30.108 
17:45	51.0	51.0	51.0	61	38.0	0	2	90	0.00	30.106 
17:50	51.0	51.0	51.0	62	38.4	0	1	90	0.00	30.106 
17:55	50.8	50.8	50.8	61	37.8	0	2	90	0.00	30.106 
18:00	50.7	50.7	50.7	62	38.2	0	1	90	0.00	30.109 
18:05	50.7	50.7	50.7	62	38.2	0	2	90	0.00	30.109 
18:10	50.5	50.5	50.5	62	38.0	0	1	90	0.00	30.109 
18:15	50.5	50.5	50.5	63	38.4	0	1	90	0.00	30.102 
18:20	50.5	50.5	50.5	64	38.8	0	1	90	0.00	30.102 
18:25	50.4	50.4	50.4	66	39.5	0	3	90	0.00	30.102 
18:30	50.4	50.4	50.4	67	39.9	0	1	90	0.00	30.096 
18:35	50.1	50.1	50.1	68	40.0	0	1	90	0.00	30.096 
18:40	49.9	49.9	49.9	68	39.8	0	1	90	0.00	30.096 
18:45	49.8	49.8	49.8	69	40.0	0	1	90	0.00	30.092 
18:50	49.8	49.8	49.8	69	40.0	0	1	90	0.00	30.092 
18:55	49.6	49.6	49.6	69	39.9	0	1	90	0.00	30.092 
19:00	49.5	49.5	49.5	70	40.1	0	0	---	0.00	30.079 
19:05	49.4	49.4	49.4	70	40.0	0	1	90	0.00	30.079 
19:10	49.2	49.2	49.2	71	40.2	0	1	90	0.00	30.079 
19:15	49.1	49.1	49.1	72	40.5	0	1	90	0.00	30.084 
19:20	48.9	48.9	48.9	73	40.6	0	1	90	0.00	30.084 
19:25	48.8	48.8	48.8	74	40.9	0	2	90	0.00	30.084 
19:30	48.6	48.6	48.6	74	40.7	0	1	90	0.00	30.085 
19:35	48.6	48.6	48.6	75	41.0	0	1	90	0.00	30.085 
19:40	48.6	48.6	48.6	75	41.0	0	0	---	0.00	30.085 
19:45	48.5	48.5	48.5	75	40.9	0	0	---	0.00	30.091 
19:50	48.5	48.5	48.5	75	40.9	0	1	90	0.00	30.091 
19:55	48.3	48.3	48.3	75	40.7	0	0	---	0.00	30.091 
20:00	48.3	48.3	48.3	75	40.7	0	0	---	0.00	30.096 
20:05	48.3	48.3	48.3	75	40.7	0	0	---	0.00	30.096 
20:10	48.2	48.2	48.2	75	40.7	0	1	90	0.00	30.096 
20:15	48.2	48.2	48.2	75	40.7	0	0	---	0.00	30.103 
20:20	48.0	48.0	48.0	75	40.5	0	0	---	0.00	30.103 
20:25	48.0	48.0	48.0	75	40.5	0	0	---	0.00	30.103 
20:30	47.9	47.9	47.9	75	40.4	0	0	---	0.00	30.096 
20:35	47.7	47.7	47.7	75	40.2	0	0	---	0.00	30.096 
20:40	47.6	47.6	47.6	75	40.1	0	0	---	0.00	30.096 
20:45	47.4	47.4	47.4	75	39.9	0	0	---	0.00	30.090 
20:50	47.3	47.3	47.3	75	39.8	0	0	---	0.00	30.090 
20:55	47.0	47.0	47.0	75	39.5	0	0	---	0.00	30.090 
21:00	46.8	46.8	46.8	76	39.6	0	0	---	0.00	30.090 
21:05	46.5	46.5	46.5	76	39.3	0	0	---	0.00	30.090 
21:10	46.4	46.4	46.4	76	39.3	0	0	---	0.00	30.090 
21:15	46.2	46.2	46.2	77	39.4	0	0	---	0.00	30.082 
21:20	46.0	46.0	46.0	77	39.2	0	0	---	0.00	30.082 
21:25	45.7	45.7	45.7	78	39.2	0	0	---	0.00	30.082 
21:30	45.2	45.2	45.2	78	38.8	0	0	---	0.00	30.089 
21:35	44.9	44.9	44.9	79	38.8	0	0	---	0.00	30.089 
21:40	44.8	44.8	44.8	80	39.0	0	0	---	0.00	30.089 
21:45	44.6	44.6	44.6	80	38.8	0	0	---	0.00	30.085 
21:50	44.6	44.6	44.6	81	39.1	0	1	90	0.00	30.085 
21:55	44.6	44.6	44.6	81	39.1	0	0	---	0.00	30.085 
22:00	44.5	44.5	44.5	81	39.0	0	0	---	0.00	30.088 
22:05	44.5	44.5	44.5	81	39.0	0	0	---	0.00	30.088 
22:10	44.2	44.2	44.2	81	38.7	0	0	---	0.00	30.088 
22:15	44.1	44.1	44.1	82	39.0	0	0	---	0.00	30.098 
22:20	43.9	43.9	43.9	82	38.8	0	0	---	0.00	30.098 
22:25	43.6	43.6	43.6	82	38.5	0	0	---	0.00	30.098 
22:30	43.3	43.3	43.3	82	38.2	0	0	---	0.00	30.105 
22:35	43.1	43.1	43.1	83	38.3	0	0	---	0.00	30.105 
22:40	42.8	42.8	42.8	84	38.3	0	0	---	0.00	30.105 
22:45	42.5	42.5	42.5	85	38.3	0	0	---	0.00	30.102 
22:50	42.2	42.2	42.2	85	38.0	0	0	---	0.00	30.102 
22:55	42.2	42.2	42.2	85	38.0	0	0	---	0.00	30.102 
23:00	42.1	42.1	42.1	86	38.2	0	0	---	0.00	30.111 
23:05	42.1	42.1	42.1	87	38.5	0	0	---	0.00	30.111 
23:10	42.2	42.2	42.2	87	38.6	0	0	---	0.00	30.111 
23:15	42.2	42.2	42.2	87	38.6	0	0	---	0.00	30.111 
23:20	42.2	42.2	42.2	87	38.6	0	0	---	0.00	30.111 
23:25	42.2	42.2	42.2	87	38.6	0	0	---	0.00	30.111 
23:30	42.3	42.3	42.3	88	39.0	0	0	---	0.00	30.112 
23:35	42.5	42.5	42.5	88	39.2	0	0	---	0.00	30.112 
23:40	42.6	42.6	42.6	88	39.3	0	0	---	0.00	30.112 
23:45	42.8	42.8	42.8	88	39.5	0	0	---	0.00	30.113 
23:50	42.9	42.9	42.9	88	39.6	0	0	---	0.00	30.113 
23:55	43.2	43.2	43.2	88	39.9	0	0	---	0.00	30.113 

CoCoRaHS
IN-AL-39
A2 Web Hosting
Creative Commons License
GoDaddy
search engine by freefind advanced

loaded 2018-11-16 10:56:56 • last modified 2010-11-18 10:43:29
Privacy PolicyDisclaimer
• wx.awcolley.com is powered by PmWiki v.2002016 •
• all content (unless otherwise noted) © 2018 A W Colley